![]() |
EMODnet Physics ERDDAP
Easier access to scientific data |
log in|
Brought to you by EMODnet Physics |
| Dataset Title: | NDBC - Collection of dew point temperature (DEWT) TimeSeries - IN SITU MultiPointTimeSeriesObservation
|
| Institution: | NDBC (Dataset ID: TS_DEWT_NDBC) |
| Information: | Summary
| License
| FGDC
| ISO 19115
| Metadata
| Background
| Subset
| Data Access Form
| Make a graph
|
| Name | Last modified | Size | Description | |
|---|---|---|---|---|
| Parent Directory | - | - | ||
| 45007_TS_DEWT_012010.nc | 26-Oct-2024 19:41 | 448645 | ||
| 45007_TS_DEWT_022010.nc | 26-Oct-2024 19:41 | 449562 | ||
| 45007_TS_DEWT_031982.nc | 26-Oct-2024 19:41 | 449643 | ||
| 45007_TS_DEWT_031983.nc | 26-Oct-2024 19:41 | 448916 | ||
| 45007_TS_DEWT_031984.nc | 26-Oct-2024 19:41 | 449068 | ||
| 45007_TS_DEWT_031987.nc | 26-Oct-2024 19:41 | 448593 | ||
| 45007_TS_DEWT_031988.nc | 26-Oct-2024 19:41 | 448917 | ||
| 45007_TS_DEWT_031989.nc | 26-Oct-2024 19:41 | 450319 | ||
| 45007_TS_DEWT_031992.nc | 26-Oct-2024 19:41 | 449779 | ||
| 45007_TS_DEWT_031993.nc | 26-Oct-2024 19:41 | 450321 | ||
| 45007_TS_DEWT_031994.nc | 26-Oct-2024 19:41 | 1116125 | ||
| 45007_TS_DEWT_031995.nc | 26-Oct-2024 19:41 | 1115478 | ||
| 45007_TS_DEWT_031996.nc | 26-Oct-2024 19:41 | 1116862 | ||
| 45007_TS_DEWT_031997.nc | 26-Oct-2024 19:42 | 995611 | ||
| 45007_TS_DEWT_031998.nc | 26-Oct-2024 19:42 | 1112729 | ||
| 45007_TS_DEWT_031999.nc | 26-Oct-2024 19:42 | 1111598 | ||
| 45007_TS_DEWT_032000.nc | 26-Oct-2024 19:42 | 1113703 | ||
| 45007_TS_DEWT_032001.nc | 26-Oct-2024 19:42 | 1112168 | ||
| 45007_TS_DEWT_032002.nc | 26-Oct-2024 19:42 | 5098565 | ||
| 45007_TS_DEWT_032004.nc | 26-Oct-2024 19:42 | 443120 | ||
| 45007_TS_DEWT_032005.nc | 26-Oct-2024 19:42 | 446780 | ||
| 45007_TS_DEWT_032006.nc | 26-Oct-2024 19:42 | 450012 | ||
| 45007_TS_DEWT_032010.nc | 26-Oct-2024 19:42 | 450229 | ||
| 45007_TS_DEWT_032011.nc | 26-Oct-2024 19:42 | 451277 | ||
| 45007_TS_DEWT_032013.nc | 26-Oct-2024 19:42 | 450064 | ||
| 45007_TS_DEWT_041982.nc | 26-Oct-2024 19:42 | 449918 | ||
| 45007_TS_DEWT_041983.nc | 26-Oct-2024 19:42 | 418799 | ||
| 45007_TS_DEWT_041984.nc | 26-Oct-2024 19:42 | 450803 | ||
| 45007_TS_DEWT_041985.nc | 26-Oct-2024 19:42 | 449720 | ||
| 45007_TS_DEWT_041987.nc | 26-Oct-2024 19:42 | 449367 | ||
| 45007_TS_DEWT_041988.nc | 26-Oct-2024 19:42 | 1267128 | ||
| 45007_TS_DEWT_041989.nc | 26-Oct-2024 19:43 | 1265454 | ||
| 45007_TS_DEWT_041990.nc | 26-Oct-2024 19:43 | 1267794 | ||
| 45007_TS_DEWT_041991.nc | 26-Oct-2024 19:43 | 1264320 | ||
| 45007_TS_DEWT_041992.nc | 26-Oct-2024 19:43 | 1022340 | ||
| 45007_TS_DEWT_041993.nc | 26-Oct-2024 19:43 | 1266805 | ||
| 45007_TS_DEWT_041994.nc | 26-Oct-2024 19:43 | 1266103 | ||
| 45007_TS_DEWT_041995.nc | 26-Oct-2024 19:43 | 1268012 | ||
| 45007_TS_DEWT_041996.nc | 26-Oct-2024 19:43 | 4756918 | ||
| 45007_TS_DEWT_041997.nc | 26-Oct-2024 19:43 | 429833 | ||
| 45007_TS_DEWT_041998.nc | 26-Oct-2024 19:43 | 449445 | ||
| 45007_TS_DEWT_041999.nc | 26-Oct-2024 19:43 | 449286 | ||
| 45007_TS_DEWT_042000.nc | 26-Oct-2024 19:43 | 449361 | ||
| 45007_TS_DEWT_042001.nc | 26-Oct-2024 19:43 | 450313 | ||
| 45007_TS_DEWT_042002.nc | 26-Oct-2024 19:43 | 449927 | ||
| 45007_TS_DEWT_042003.nc | 26-Oct-2024 19:43 | 438832 | ||
| 45007_TS_DEWT_042004.nc | 26-Oct-2024 19:44 | 429816 | ||
| 45007_TS_DEWT_042005.nc | 26-Oct-2024 19:44 | 451097 | ||
| 45007_TS_DEWT_042006.nc | 26-Oct-2024 19:44 | 450254 | ||
| 45007_TS_DEWT_042007.nc | 26-Oct-2024 19:44 | 450408 | ||
| 45007_TS_DEWT_042008.nc | 26-Oct-2024 19:44 | 1264091 | ||
| 45007_TS_DEWT_042009.nc | 26-Oct-2024 19:44 | 1265328 | ||
| 45007_TS_DEWT_042010.nc | 26-Oct-2024 19:44 | 1267653 | ||
| 45007_TS_DEWT_042011.nc | 26-Oct-2024 19:44 | 1267525 | ||
| 45007_TS_DEWT_042012.nc | 26-Oct-2024 19:44 | 1265076 | ||
| 45007_TS_DEWT_042013.nc | 26-Oct-2024 19:44 | 1264135 | ||
| 45007_TS_DEWT_042015.nc | 26-Oct-2024 19:44 | 1268482 | ||
| 45007_TS_DEWT_042016.nc | 26-Oct-2024 19:44 | 1267712 | ||
| 45007_TS_DEWT_042017.nc | 26-Oct-2024 19:44 | 5479645 | ||
| 45007_TS_DEWT_051982.nc | 26-Oct-2024 19:44 | 429339 | ||
| 45007_TS_DEWT_051983.nc | 26-Oct-2024 19:44 | 449401 | ||
| 45007_TS_DEWT_051984.nc | 26-Oct-2024 19:44 | 449289 | ||
| 45007_TS_DEWT_051985.nc | 26-Oct-2024 19:44 | 449241 | ||
| 45007_TS_DEWT_051986.nc | 26-Oct-2024 19:45 | 449040 | ||
| 45007_TS_DEWT_051987.nc | 26-Oct-2024 19:45 | 449005 | ||
| 45007_TS_DEWT_051988.nc | 26-Oct-2024 19:45 | 448121 | ||
| 45007_TS_DEWT_051989.nc | 26-Oct-2024 19:45 | 429448 | ||
| 45007_TS_DEWT_051990.nc | 26-Oct-2024 19:45 | 449431 | ||
| 45007_TS_DEWT_051991.nc | 26-Oct-2024 19:45 | 448384 | ||
| 45007_TS_DEWT_051992.nc | 26-Oct-2024 19:45 | 448633 | ||
| 45007_TS_DEWT_051993.nc | 26-Oct-2024 19:45 | 1112207 | ||
| 45007_TS_DEWT_051994.nc | 26-Oct-2024 19:45 | 1114459 | ||
| 45007_TS_DEWT_051995.nc | 26-Oct-2024 19:45 | 1112475 | ||
| 45007_TS_DEWT_051996.nc | 26-Oct-2024 19:45 | 1117279 | ||
| 45007_TS_DEWT_051997.nc | 26-Oct-2024 19:45 | 1113771 | ||
| 45007_TS_DEWT_051998.nc | 26-Oct-2024 19:45 | 1112450 | ||
| 45007_TS_DEWT_051999.nc | 26-Oct-2024 19:45 | 1066082 | ||
| 45007_TS_DEWT_052000.nc | 26-Oct-2024 19:45 | 1114853 | ||
| 45007_TS_DEWT_052001.nc | 26-Oct-2024 19:46 | 4840481 | ||
| 45007_TS_DEWT_052002.nc | 26-Oct-2024 19:46 | 429838 | ||
| 45007_TS_DEWT_052003.nc | 26-Oct-2024 19:46 | 451136 | ||
| 45007_TS_DEWT_052004.nc | 26-Oct-2024 19:46 | 450624 | ||
| 45007_TS_DEWT_052005.nc | 26-Oct-2024 19:46 | 450772 | ||
| 45007_TS_DEWT_052006.nc | 26-Oct-2024 19:46 | 449573 | ||
| 45007_TS_DEWT_052007.nc | 26-Oct-2024 19:46 | 450890 | ||
| 45007_TS_DEWT_052008.nc | 26-Oct-2024 19:46 | 451269 | ||
| 45007_TS_DEWT_052009.nc | 26-Oct-2024 19:46 | 429773 | ||
| 45007_TS_DEWT_052010.nc | 26-Oct-2024 19:46 | 450846 | ||
| 45007_TS_DEWT_052011.nc | 26-Oct-2024 19:46 | 449872 | ||
| 45007_TS_DEWT_052012.nc | 26-Oct-2024 19:46 | 451663 | ||
| 45007_TS_DEWT_052013.nc | 26-Oct-2024 19:46 | 1264903 | ||
| 45007_TS_DEWT_052014.nc | 26-Oct-2024 19:46 | 1264871 | ||
| 45007_TS_DEWT_052015.nc | 26-Oct-2024 19:46 | 418800 | ||
| 45007_TS_DEWT_052016.nc | 26-Oct-2024 19:46 | 1264085 | ||
| 45007_TS_DEWT_052017.nc | 26-Oct-2024 19:46 | 1263440 | ||
| 45007_TS_DEWT_052018.nc | 26-Oct-2024 19:46 | 1267491 | ||
| 45007_TS_DEWT_052019.nc | 26-Oct-2024 19:47 | 1267531 | ||
| 45007_TS_DEWT_052022.nc | 26-Oct-2024 19:47 | 1265853 | ||
| 45007_TS_DEWT_052023.nc | 26-Oct-2024 19:47 | 5446272 | ||
| 45007_TS_DEWT_052024.nc | 17-Jan-2025 11:38 | 429476 | ||
| 45007_TS_DEWT_052025.nc | 18-Jan-2026 15:21 | 425343 | ||
| 45007_TS_DEWT_061982.nc | 26-Oct-2024 19:47 | 449056 | ||
| 45007_TS_DEWT_061983.nc | 26-Oct-2024 19:47 | 449396 | ||
| 45007_TS_DEWT_061984.nc | 26-Oct-2024 19:47 | 448738 | ||
| 45007_TS_DEWT_061985.nc | 26-Oct-2024 19:47 | 449113 | ||
| 45007_TS_DEWT_061986.nc | 26-Oct-2024 19:47 | 449701 | ||
| 45007_TS_DEWT_061987.nc | 26-Oct-2024 19:47 | 429453 | ||
| 45007_TS_DEWT_061988.nc | 26-Oct-2024 19:47 | 448569 | ||
| 45007_TS_DEWT_061989.nc | 26-Oct-2024 19:47 | 450234 | ||
| 45007_TS_DEWT_061990.nc | 26-Oct-2024 19:47 | 449970 | ||
| 45007_TS_DEWT_061991.nc | 26-Oct-2024 19:47 | 1113112 | ||
| 45007_TS_DEWT_061992.nc | 26-Oct-2024 19:47 | 1117292 | ||
| 45007_TS_DEWT_061993.nc | 26-Oct-2024 19:47 | 1114597 | ||
| 45007_TS_DEWT_061994.nc | 26-Oct-2024 19:47 | 1089356 | ||
| 45007_TS_DEWT_061995.nc | 26-Oct-2024 19:47 | 1107870 | ||
| 45007_TS_DEWT_061996.nc | 26-Oct-2024 19:47 | 1112030 | ||
| 45007_TS_DEWT_061997.nc | 26-Oct-2024 19:47 | 1114741 | ||
| 45007_TS_DEWT_061998.nc | 26-Oct-2024 19:48 | 5704141 | ||
| 45007_TS_DEWT_061999.nc | 26-Oct-2024 19:48 | 5447989 | ||
| 45007_TS_DEWT_062000.nc | 26-Oct-2024 19:48 | 429832 | ||
| 45007_TS_DEWT_062001.nc | 26-Oct-2024 19:48 | 441964 | ||
| 45007_TS_DEWT_062002.nc | 26-Oct-2024 19:48 | 450649 | ||
| 45007_TS_DEWT_062003.nc | 26-Oct-2024 19:48 | 450013 | ||
| 45007_TS_DEWT_062004.nc | 26-Oct-2024 19:48 | 449839 | ||
| 45007_TS_DEWT_062005.nc | 26-Oct-2024 19:48 | 449513 | ||
| 45007_TS_DEWT_062006.nc | 26-Oct-2024 19:48 | 450026 | ||
| 45007_TS_DEWT_062007.nc | 26-Oct-2024 19:48 | 429790 | ||
| 45007_TS_DEWT_062008.nc | 26-Oct-2024 19:48 | 449926 | ||
| 45007_TS_DEWT_062009.nc | 26-Oct-2024 19:48 | 450358 | ||
| 45007_TS_DEWT_062010.nc | 26-Oct-2024 19:48 | 451345 | ||
| 45007_TS_DEWT_062011.nc | 26-Oct-2024 19:48 | 1266934 | ||
| 45007_TS_DEWT_062012.nc | 26-Oct-2024 19:48 | 1264769 | ||
| 45007_TS_DEWT_062013.nc | 26-Oct-2024 19:48 | 1265477 | ||
| 45007_TS_DEWT_062014.nc | 26-Oct-2024 19:48 | 1270994 | ||
| 45007_TS_DEWT_062015.nc | 26-Oct-2024 19:48 | 1266305 | ||
| 45007_TS_DEWT_062016.nc | 26-Oct-2024 19:49 | 1252637 | ||
| 45007_TS_DEWT_062017.nc | 26-Oct-2024 19:49 | 1017859 | ||
| 45007_TS_DEWT_062018.nc | 26-Oct-2024 19:49 | 5529678 | ||
| 45007_TS_DEWT_062019.nc | 26-Oct-2024 19:49 | 5542156 | ||
| 45007_TS_DEWT_062022.nc | 26-Oct-2024 19:49 | 429831 | ||
| 45007_TS_DEWT_062023.nc | 26-Oct-2024 19:49 | 449856 | ||
| 45007_TS_DEWT_062024.nc | 17-Jan-2025 11:39 | 431784 | ||
| 45007_TS_DEWT_062025.nc | 18-Jan-2026 15:21 | 449881 | ||
| 45007_TS_DEWT_071981.nc | 26-Oct-2024 19:49 | 429836 | ||
| 45007_TS_DEWT_071982.nc | 26-Oct-2024 19:49 | 450188 | ||
| 45007_TS_DEWT_071983.nc | 26-Oct-2024 19:49 | 450026 | ||
| 45007_TS_DEWT_071984.nc | 26-Oct-2024 19:49 | 449935 | ||
| 45007_TS_DEWT_071985.nc | 26-Oct-2024 19:49 | 1270613 | ||
| 45007_TS_DEWT_071986.nc | 26-Oct-2024 19:49 | 1263010 | ||
| 45007_TS_DEWT_071987.nc | 26-Oct-2024 19:49 | 1269310 | ||
| 45007_TS_DEWT_071988.nc | 26-Oct-2024 19:49 | 3418094 | ||
| 45007_TS_DEWT_071989.nc | 26-Oct-2024 19:49 | 428805 | ||
| 45007_TS_DEWT_071990.nc | 26-Oct-2024 19:49 | 447364 | ||
| 45007_TS_DEWT_071991.nc | 26-Oct-2024 19:49 | 429203 | ||
| 45007_TS_DEWT_071992.nc | 26-Oct-2024 19:50 | 428804 | ||
| 45007_TS_DEWT_071993.nc | 26-Oct-2024 19:50 | 446912 | ||
| 45007_TS_DEWT_071994.nc | 26-Oct-2024 19:50 | 447128 | ||
| 45007_TS_DEWT_071995.nc | 26-Oct-2024 19:50 | 448279 | ||
| 45007_TS_DEWT_071996.nc | 26-Oct-2024 19:50 | 1029340 | ||
| 45007_TS_DEWT_071997.nc | 26-Oct-2024 19:50 | 1027428 | ||
| 45007_TS_DEWT_071998.nc | 26-Oct-2024 19:50 | 1107779 | ||
| 45007_TS_DEWT_071999.nc | 26-Oct-2024 19:50 | 5002309 | ||
| 45007_TS_DEWT_072000.nc | 26-Oct-2024 19:50 | 429819 | ||
| 45007_TS_DEWT_072001.nc | 26-Oct-2024 19:50 | 433276 | ||
| 45007_TS_DEWT_072002.nc | 26-Oct-2024 19:50 | 449631 | ||
| 45007_TS_DEWT_072003.nc | 26-Oct-2024 19:50 | 433253 | ||
| 45007_TS_DEWT_072004.nc | 26-Oct-2024 19:50 | 450224 | ||
| 45007_TS_DEWT_072005.nc | 26-Oct-2024 19:50 | 449515 | ||
| 45007_TS_DEWT_072006.nc | 26-Oct-2024 19:50 | 449687 | ||
| 45007_TS_DEWT_072007.nc | 26-Oct-2024 19:50 | 1019878 | ||
| 45007_TS_DEWT_072008.nc | 26-Oct-2024 19:51 | 1267427 | ||
| 45007_TS_DEWT_072009.nc | 26-Oct-2024 19:51 | 1263002 | ||
| 45007_TS_DEWT_072010.nc | 26-Oct-2024 19:51 | 1265073 | ||
| 45007_TS_DEWT_072011.nc | 26-Oct-2024 19:51 | 443295 | ||
| 45007_TS_DEWT_072012.nc | 26-Oct-2024 19:51 | 3399733 | ||
| 45007_TS_DEWT_072013.nc | 26-Oct-2024 19:51 | 425507 | ||
| 45007_TS_DEWT_072014.nc | 26-Oct-2024 19:51 | 418798 | ||
| 45007_TS_DEWT_072016.nc | 26-Oct-2024 19:51 | 436765 | ||
| 45007_TS_DEWT_072017.nc | 26-Oct-2024 19:51 | 433723 | ||
| 45007_TS_DEWT_072018.nc | 26-Oct-2024 19:51 | 450350 | ||
| 45007_TS_DEWT_072019.nc | 26-Oct-2024 19:51 | 450421 | ||
| 45007_TS_DEWT_072020.nc | 26-Oct-2024 19:51 | 450067 | ||
| 45007_TS_DEWT_072021.nc | 26-Oct-2024 19:51 | 448605 | ||
| 45007_TS_DEWT_072022.nc | 26-Oct-2024 19:51 | 1112837 | ||
| 45007_TS_DEWT_072023.nc | 26-Oct-2024 19:51 | 1113080 | ||
| 45007_TS_DEWT_072024.nc | 17-Jan-2025 11:40 | 1115065 | ||
| 45007_TS_DEWT_072025.nc | 18-Jan-2026 15:22 | 1111770 | ||
| 45007_TS_DEWT_081981.nc | 26-Oct-2024 19:51 | 681075 | ||
| 45007_TS_DEWT_081982.nc | 26-Oct-2024 19:51 | 4915733 | ||
| 45007_TS_DEWT_081983.nc | 26-Oct-2024 19:52 | 428996 | ||
| 45007_TS_DEWT_081984.nc | 26-Oct-2024 19:52 | 450983 | ||
| 45007_TS_DEWT_081985.nc | 26-Oct-2024 19:52 | 450748 | ||
| 45007_TS_DEWT_081986.nc | 26-Oct-2024 19:52 | 425272 | ||
| 45007_TS_DEWT_081987.nc | 26-Oct-2024 19:52 | 432266 | ||
| 45007_TS_DEWT_081988.nc | 26-Oct-2024 19:52 | 451443 | ||
| 45007_TS_DEWT_081989.nc | 26-Oct-2024 19:52 | 451049 | ||
| 45007_TS_DEWT_081990.nc | 26-Oct-2024 19:52 | 450297 | ||
| 45007_TS_DEWT_081991.nc | 26-Oct-2024 19:52 | 450132 | ||
| 45007_TS_DEWT_081992.nc | 26-Oct-2024 19:52 | 450442 | ||
| 45007_TS_DEWT_081993.nc | 26-Oct-2024 19:52 | 1109250 | ||
| 45007_TS_DEWT_081994.nc | 26-Oct-2024 19:52 | 1263779 | ||
| 45007_TS_DEWT_081995.nc | 26-Oct-2024 19:52 | 1267009 | ||
| 45007_TS_DEWT_081996.nc | 26-Oct-2024 19:52 | 1266108 | ||
| 45007_TS_DEWT_081997.nc | 26-Oct-2024 19:52 | 656620 | ||
| 45007_TS_DEWT_081998.nc | 26-Oct-2024 19:52 | 5399766 | ||
| 45007_TS_DEWT_081999.nc | 26-Oct-2024 19:52 | 431904 | ||
| 45007_TS_DEWT_082000.nc | 26-Oct-2024 19:52 | 448805 | ||
| 45007_TS_DEWT_082001.nc | 26-Oct-2024 19:53 | 425633 | ||
| 45007_TS_DEWT_082002.nc | 26-Oct-2024 19:53 | 448939 | ||
| 45007_TS_DEWT_082003.nc | 26-Oct-2024 19:53 | 449076 | ||
| 45007_TS_DEWT_082004.nc | 26-Oct-2024 19:53 | 448929 | ||
| 45007_TS_DEWT_082005.nc | 26-Oct-2024 19:53 | 449083 | ||
| 45007_TS_DEWT_082006.nc | 26-Oct-2024 19:53 | 449021 | ||
| 45007_TS_DEWT_082007.nc | 26-Oct-2024 19:53 | 448901 | ||
| 45007_TS_DEWT_082008.nc | 26-Oct-2024 19:53 | 449480 | ||
| 45007_TS_DEWT_082009.nc | 26-Oct-2024 19:53 | 448438 | ||
| 45007_TS_DEWT_082010.nc | 26-Oct-2024 19:53 | 449168 | ||
| 45007_TS_DEWT_082011.nc | 26-Oct-2024 19:53 | 1112476 | ||
| 45007_TS_DEWT_082012.nc | 26-Oct-2024 19:53 | 1110510 | ||
| 45007_TS_DEWT_082013.nc | 26-Oct-2024 19:53 | 1031365 | ||
| 45007_TS_DEWT_082014.nc | 26-Oct-2024 19:53 | 1115174 | ||
| 45007_TS_DEWT_082015.nc | 26-Oct-2024 19:53 | 1114164 | ||
| 45007_TS_DEWT_082016.nc | 26-Oct-2024 19:53 | 5175548 | ||
| 45007_TS_DEWT_082017.nc | 26-Oct-2024 19:53 | 449975 | ||
| 45007_TS_DEWT_082018.nc | 26-Oct-2024 19:53 | 419575 | ||
| 45007_TS_DEWT_082019.nc | 26-Oct-2024 19:54 | 449645 | ||
| 45007_TS_DEWT_082020.nc | 26-Oct-2024 19:54 | 449204 | ||
| 45007_TS_DEWT_082021.nc | 26-Oct-2024 19:54 | 450014 | ||
| 45007_TS_DEWT_082022.nc | 26-Oct-2024 19:54 | 450400 | ||
| 45007_TS_DEWT_082023.nc | 26-Oct-2024 19:54 | 451018 | ||
| 45007_TS_DEWT_082024.nc | 17-Jan-2025 11:41 | 449811 | ||
| 45007_TS_DEWT_082025.nc | 18-Jan-2026 15:22 | 450396 | ||
| 45007_TS_DEWT_091981.nc | 26-Oct-2024 19:54 | 450513 | ||
| 45007_TS_DEWT_091982.nc | 26-Oct-2024 19:54 | 1262525 | ||
| 45007_TS_DEWT_091983.nc | 26-Oct-2024 19:54 | 418799 | ||
| 45007_TS_DEWT_091984.nc | 26-Oct-2024 19:54 | 1263447 | ||
| 45007_TS_DEWT_091985.nc | 26-Oct-2024 19:54 | 1110232 | ||
| 45007_TS_DEWT_091986.nc | 26-Oct-2024 19:54 | 1263780 | ||
| 45007_TS_DEWT_091987.nc | 26-Oct-2024 19:54 | 4787882 | ||
| 45007_TS_DEWT_091988.nc | 26-Oct-2024 19:54 | 450870 | ||
| 45007_TS_DEWT_091989.nc | 26-Oct-2024 19:54 | 450047 | ||
| 45007_TS_DEWT_091990.nc | 26-Oct-2024 19:54 | 450454 | ||
| 45007_TS_DEWT_091991.nc | 26-Oct-2024 19:55 | 449776 | ||
| 45007_TS_DEWT_091992.nc | 26-Oct-2024 19:55 | 442872 | ||
| 45007_TS_DEWT_091993.nc | 26-Oct-2024 19:55 | 433576 | ||
| 45007_TS_DEWT_091994.nc | 26-Oct-2024 19:55 | 451025 | ||
| 45007_TS_DEWT_091995.nc | 26-Oct-2024 19:55 | 450433 | ||
| 45007_TS_DEWT_091996.nc | 26-Oct-2024 19:55 | 449712 | ||
| 45007_TS_DEWT_091997.nc | 26-Oct-2024 19:55 | 1264676 | ||
| 45007_TS_DEWT_091998.nc | 26-Oct-2024 19:55 | 1268269 | ||
| 45007_TS_DEWT_091999.nc | 26-Oct-2024 19:55 | 1269502 | ||
| 45007_TS_DEWT_092000.nc | 26-Oct-2024 19:55 | 1263718 | ||
| 45007_TS_DEWT_092001.nc | 26-Oct-2024 19:55 | 5423918 | ||
| 45007_TS_DEWT_092002.nc | 26-Oct-2024 19:55 | 447331 | ||
| 45007_TS_DEWT_092003.nc | 26-Oct-2024 19:55 | 449359 | ||
| 45007_TS_DEWT_092004.nc | 26-Oct-2024 19:55 | 448919 | ||
| 45007_TS_DEWT_092005.nc | 26-Oct-2024 19:55 | 437055 | ||
| 45007_TS_DEWT_092006.nc | 26-Oct-2024 19:55 | 450031 | ||
| 45007_TS_DEWT_092007.nc | 26-Oct-2024 19:55 | 429495 | ||
| 45007_TS_DEWT_092008.nc | 26-Oct-2024 19:55 | 448445 | ||
| 45007_TS_DEWT_092009.nc | 26-Oct-2024 19:55 | 448726 | ||
| 45007_TS_DEWT_092010.nc | 26-Oct-2024 19:55 | 449110 | ||
| 45007_TS_DEWT_092011.nc | 26-Oct-2024 19:56 | 1111481 | ||
| 45007_TS_DEWT_092012.nc | 26-Oct-2024 19:56 | 1110900 | ||
| 45007_TS_DEWT_092013.nc | 26-Oct-2024 19:56 | 1113093 | ||
| 45007_TS_DEWT_092014.nc | 26-Oct-2024 19:56 | 1111706 | ||
| 45007_TS_DEWT_092015.nc | 26-Oct-2024 19:56 | 1112169 | ||
| 45007_TS_DEWT_092016.nc | 26-Oct-2024 19:56 | 4651464 | ||
| 45007_TS_DEWT_092017.nc | 26-Oct-2024 19:56 | 439593 | ||
| 45007_TS_DEWT_092018.nc | 26-Oct-2024 19:56 | 429831 | ||
| 45007_TS_DEWT_092019.nc | 26-Oct-2024 19:56 | 449975 | ||
| 45007_TS_DEWT_092020.nc | 26-Oct-2024 19:56 | 450276 | ||
| 45007_TS_DEWT_092021.nc | 26-Oct-2024 19:56 | 450797 | ||
| 45007_TS_DEWT_092022.nc | 26-Oct-2024 19:56 | 429832 | ||
| 45007_TS_DEWT_092023.nc | 26-Oct-2024 19:56 | 450247 | ||
| 45007_TS_DEWT_092024.nc | 17-Jan-2025 11:42 | 450221 | ||
| 45007_TS_DEWT_092025.nc | 18-Jan-2026 15:23 | 450800 | ||
| 45007_TS_DEWT_101981.nc | 26-Oct-2024 19:56 | 1268957 | ||
| 45007_TS_DEWT_101982.nc | 26-Oct-2024 19:56 | 1266288 | ||
| 45007_TS_DEWT_101983.nc | 26-Oct-2024 19:56 | 1267112 | ||
| 45007_TS_DEWT_101984.nc | 26-Oct-2024 19:57 | 1265636 | ||
| 45007_TS_DEWT_101985.nc | 26-Oct-2024 19:57 | 1265352 | ||
| 45007_TS_DEWT_101986.nc | 26-Oct-2024 19:57 | 5770130 | ||
| 45007_TS_DEWT_101987.nc | 26-Oct-2024 19:57 | 440318 | ||
| 45007_TS_DEWT_101988.nc | 26-Oct-2024 19:57 | 418799 | ||
| 45007_TS_DEWT_101989.nc | 26-Oct-2024 19:57 | 450021 | ||
| 45007_TS_DEWT_101990.nc | 26-Oct-2024 19:57 | 449430 | ||
| 45007_TS_DEWT_101991.nc | 26-Oct-2024 19:57 | 447777 | ||
| 45007_TS_DEWT_101992.nc | 26-Oct-2024 19:57 | 429490 | ||
| 45007_TS_DEWT_101993.nc | 26-Oct-2024 19:57 | 449024 | ||
| 45007_TS_DEWT_101994.nc | 26-Oct-2024 19:57 | 449233 | ||
| 45007_TS_DEWT_101995.nc | 26-Oct-2024 19:57 | 449988 | ||
| 45007_TS_DEWT_101996.nc | 26-Oct-2024 19:57 | 1113252 | ||
| 45007_TS_DEWT_101997.nc | 26-Oct-2024 19:57 | 1114626 | ||
| 45007_TS_DEWT_101998.nc | 26-Oct-2024 19:57 | 1112263 | ||
| 45007_TS_DEWT_101999.nc | 26-Oct-2024 19:57 | 1110944 | ||
| 45007_TS_DEWT_102000.nc | 26-Oct-2024 19:57 | 1113869 | ||
| 45007_TS_DEWT_102001.nc | 26-Oct-2024 19:57 | 5446171 | ||
| 45007_TS_DEWT_102002.nc | 26-Oct-2024 19:57 | 438025 | ||
| 45007_TS_DEWT_102003.nc | 26-Oct-2024 19:57 | 449952 | ||
| 45007_TS_DEWT_102004.nc | 26-Oct-2024 19:57 | 450921 | ||
| 45007_TS_DEWT_102005.nc | 26-Oct-2024 19:57 | 418817 | ||
| 45007_TS_DEWT_102006.nc | 26-Oct-2024 19:57 | 450393 | ||
| 45007_TS_DEWT_102007.nc | 26-Oct-2024 19:58 | 429835 | ||
| 45007_TS_DEWT_102008.nc | 26-Oct-2024 19:58 | 451283 | ||
| 45007_TS_DEWT_102009.nc | 26-Oct-2024 19:58 | 450556 | ||
| 45007_TS_DEWT_102010.nc | 26-Oct-2024 19:58 | 451279 | ||
| 45007_TS_DEWT_102011.nc | 26-Oct-2024 19:58 | 1266184 | ||
| 45007_TS_DEWT_102012.nc | 26-Oct-2024 19:58 | 1262987 | ||
| 45007_TS_DEWT_102013.nc | 26-Oct-2024 19:58 | 1269286 | ||
| 45007_TS_DEWT_102014.nc | 26-Oct-2024 19:58 | 637334 | ||
| 45007_TS_DEWT_102015.nc | 26-Oct-2024 19:58 | 1335971 | ||
| 45007_TS_DEWT_102016.nc | 26-Oct-2024 19:58 | 5567292 | ||
| 45007_TS_DEWT_102017.nc | 26-Oct-2024 19:58 | 429834 | ||
| 45007_TS_DEWT_102018.nc | 26-Oct-2024 19:58 | 449840 | ||
| 45007_TS_DEWT_102019.nc | 26-Oct-2024 19:58 | 449797 | ||
| 45007_TS_DEWT_102020.nc | 26-Oct-2024 19:58 | 451054 | ||
| 45007_TS_DEWT_102021.nc | 26-Oct-2024 19:58 | 429044 | ||
| 45007_TS_DEWT_102022.nc | 26-Oct-2024 19:58 | 450444 | ||
| 45007_TS_DEWT_102023.nc | 26-Oct-2024 19:58 | 449795 | ||
| 45007_TS_DEWT_102024.nc | 17-Jan-2025 14:27 | 449850 | ||
| 45007_TS_DEWT_102025.nc | 18-Jan-2026 15:24 | 429832 | ||
| 45007_TS_DEWT_111981.nc | 26-Oct-2024 19:58 | 1144057 | ||
| 45007_TS_DEWT_111982.nc | 26-Oct-2024 19:58 | 1264799 | ||
| 45007_TS_DEWT_111983.nc | 26-Oct-2024 19:58 | 1015129 | ||
| 45007_TS_DEWT_111984.nc | 26-Oct-2024 19:59 | 4940065 | ||
| 45007_TS_DEWT_111985.nc | 26-Oct-2024 19:59 | 3698758 | ||
| 45007_TS_DEWT_111986.nc | 26-Oct-2024 19:59 | 428807 | ||
| 45007_TS_DEWT_111987.nc | 26-Oct-2024 19:59 | 447239 | ||
| 45007_TS_DEWT_111988.nc | 26-Oct-2024 19:59 | 440162 | ||
| 45007_TS_DEWT_111989.nc | 26-Oct-2024 19:59 | 447928 | ||
| 45007_TS_DEWT_111990.nc | 26-Oct-2024 19:59 | 427598 | ||
| 45007_TS_DEWT_111992.nc | 26-Oct-2024 19:59 | 447885 | ||
| 45007_TS_DEWT_111993.nc | 26-Oct-2024 19:59 | 446665 | ||
| 45007_TS_DEWT_111994.nc | 26-Oct-2024 19:59 | 448565 | ||
| 45007_TS_DEWT_111995.nc | 26-Oct-2024 19:59 | 428801 | ||
| 45007_TS_DEWT_111996.nc | 26-Oct-2024 19:59 | 918107 | ||
| 45007_TS_DEWT_111997.nc | 26-Oct-2024 19:59 | 1108072 | ||
| 45007_TS_DEWT_111998.nc | 26-Oct-2024 19:59 | 424425 | ||
| 45007_TS_DEWT_111999.nc | 26-Oct-2024 19:59 | 3466455 | ||
| 45007_TS_DEWT_112000.nc | 26-Oct-2024 19:59 | 429780 | ||
| 45007_TS_DEWT_112001.nc | 26-Oct-2024 19:59 | 449288 | ||
| 45007_TS_DEWT_112002.nc | 26-Oct-2024 19:59 | 429833 | ||
| 45007_TS_DEWT_112003.nc | 26-Oct-2024 19:59 | 448964 | ||
| 45007_TS_DEWT_112004.nc | 26-Oct-2024 19:59 | 428456 | ||
| 45007_TS_DEWT_112005.nc | 26-Oct-2024 19:59 | 450180 | ||
| 45007_TS_DEWT_112006.nc | 26-Oct-2024 19:59 | 451018 | ||
| 45007_TS_DEWT_112007.nc | 26-Oct-2024 19:59 | 450546 | ||
| 45007_TS_DEWT_112008.nc | 26-Oct-2024 19:59 | 985287 | ||
| 45007_TS_DEWT_112009.nc | 26-Oct-2024 19:59 | 1144177 | ||
| 45007_TS_DEWT_112010.nc | 26-Oct-2024 19:59 | 1261577 | ||
| 45007_TS_DEWT_112011.nc | 26-Oct-2024 20:00 | 4493048 | ||
| 45007_TS_DEWT_112012.nc | 26-Oct-2024 20:00 | 420108 | ||
| 45007_TS_DEWT_112013.nc | 26-Oct-2024 20:00 | 431143 | ||
| 45007_TS_DEWT_112014.nc | 26-Oct-2024 20:00 | 429490 | ||
| 45007_TS_DEWT_112015.nc | 26-Oct-2024 20:00 | 448185 | ||
| 45007_TS_DEWT_112016.nc | 26-Oct-2024 20:00 | 422439 | ||
| 45007_TS_DEWT_112017.nc | 26-Oct-2024 20:00 | 448196 | ||
| 45007_TS_DEWT_112018.nc | 26-Oct-2024 20:00 | 449518 | ||
| 45007_TS_DEWT_112019.nc | 26-Oct-2024 20:00 | 449183 | ||
| 45007_TS_DEWT_112020.nc | 26-Oct-2024 20:00 | 1058015 | ||
| 45007_TS_DEWT_112021.nc | 26-Oct-2024 20:00 | 995697 | ||
| 45007_TS_DEWT_112022.nc | 26-Oct-2024 20:00 | 1025001 | ||
| 45007_TS_DEWT_112023.nc | 26-Oct-2024 20:00 | 1045131 | ||
| 45007_TS_DEWT_112024.nc | 17-Jan-2025 14:28 | 669557 | ||
| 45007_TS_DEWT_112025.nc | 18-Jan-2026 15:24 | 4839056 | ||
| 45007_TS_DEWT_121981.nc | 26-Oct-2024 20:00 | 429831 | ||
| 45007_TS_DEWT_121982.nc | 26-Oct-2024 20:00 | 423752 | ||
| 45007_TS_DEWT_121985.nc | 26-Oct-2024 20:00 | 448677 | ||
| 45007_TS_DEWT_121996.nc | 26-Oct-2024 20:00 | 432329 | ||
| 45007_TS_DEWT_121998.nc | 26-Oct-2024 20:00 | 449925 | ||
| 45007_TS_DEWT_121999.nc | 26-Oct-2024 20:00 | 437230 | ||
| 45007_TS_DEWT_122000.nc | 26-Oct-2024 20:00 | 430778 | ||
| 45007_TS_DEWT_122001.nc | 26-Oct-2024 20:01 | 450068 | ||
| 45007_TS_DEWT_122002.nc | 26-Oct-2024 20:01 | 450605 | ||
| 45007_TS_DEWT_122003.nc | 26-Oct-2024 20:01 | 995348 | ||
| 45007_TS_DEWT_122004.nc | 26-Oct-2024 20:01 | 1144107 | ||
| 45007_TS_DEWT_122005.nc | 26-Oct-2024 20:01 | 1261039 | ||
| 45007_TS_DEWT_122006.nc | 26-Oct-2024 20:01 | 1260379 | ||
| 45007_TS_DEWT_122007.nc | 26-Oct-2024 20:01 | 1007589 | ||
| 45007_TS_DEWT_122009.nc | 26-Oct-2024 20:01 | 1266953 | ||
| 45007_TS_DEWT_122010.nc | 26-Oct-2024 20:01 | 5421269 | ||
| 45007_TS_DEWT_122011.nc | 26-Oct-2024 20:01 | 426840 | ||
| 45007_TS_DEWT_122013.nc | 26-Oct-2024 20:01 | 429490 | ||
| 45007_TS_DEWT_122014.nc | 26-Oct-2024 20:01 | 448294 | ||
| 45007_TS_DEWT_122015.nc | 26-Oct-2024 20:01 | 429490 | ||
| 45007_TS_DEWT_122016.nc | 26-Oct-2024 20:01 | 448387 | ||
| 45007_TS_DEWT_122019.nc | 26-Oct-2024 20:01 | 434287 | ||
| 45007_TS_DEWT_122020.nc | 26-Oct-2024 20:01 | 429489 | ||
| 45007_TS_DEWT_122021.nc | 26-Oct-2024 20:01 | 448203 | ||
| 45007_TS_DEWT_122022.nc | 26-Oct-2024 20:02 | 448779 | ||
| 45007_TS_DEWT_122023.nc | 17-Jan-2025 11:38 | 449952 | ||
| 45007_TS_DEWT_122024.nc | 19-Jan-2025 11:14 | 995710 | ||
| 45007_TS_DEWT_122025.nc | 18-Jan-2026 15:25 | 590138 | ||